Tracking 30157 objects as of 13-Feb-2025
HD Live streaming from Space Station
objects crossing your sky now

STARLINK-4317

Track STARLINK-4317 now!
10-day predictions
STARLINK-4317 is classified as:


NORAD ID: 53058
Int'l Code: 2022-077R
Perigee: 569.6 km
Apogee: 570.7 km
Inclination: 97.7 °
Period: 95.9 minutes
Semi major axis: 6941 km
RCS: Unknown
Launch date: July 11, 2022
Source: United States (US)
Launch site: AIR FORCE WESTERN TEST RANGE (AFWTR)
Your satellite tracking list
Your tracking list is empty




NASA's NSSDC Master Catalog

Two Line Element Set (TLE):
1 53058U 22077R   25043.78778472  .00001158  00000-0  94711-4 0  9994
2 53058  97.6570 227.1608 0000804  90.8552 269.2764 15.01262989142415
Source of the keplerian elements: AFSPC